星链-5385 (STARLINK-5385 )

导读 | 豆包AI

STARLINK-5385是美国太空探索技术公司SpaceX星链星座的一员,于2022年12月28日发射升空。星链项目旨在构建全球卫星互联网星座,为全球提供高速宽带互联网服务。该卫星入轨后参与星座组网,进一步扩充星链网络覆盖范围,提升网络服务能力,推动全球卫星互联网的部署进程。

Basic Information
目录编号:
54821
目录名称:
STARLINK-5385
国际标识:
2022-177B
轨道中心:
EARTH
卫星名称:
星链-5385
卫星全名:
星链-5385 (STARLINK-5385 )
卫星状态:
在轨 (已飞行1173 天)
发射日期:
2022-12-28 UTC
国别 :
美国 (US)
星等 :
--
Orbit Information
数据来源 国际轨道数据 AOE轨道数据
星历时间 2026-03-13T11:27:38+0800
2天前
查看轨道信息
2026-03-10T16:00:00+0800
5天前
查看轨道信息
半长轴 6936.99km 6937.224km
偏心率 0.000124 0.0001328
轨道倾角 43.002° 43.002°
近地点辐角 308.147° 262.348°
升交点赤经 114.678° 129.954°
平近点角 51.926° 355.587°
近地点 557.992km 558.165km
远地点 559.714km 560.009km
周期 95.833分钟 95.838分钟
每日圈数 15.026099 15.025338
Detailed Information
固有亮度:
5
最大亮度:
2.5
卫星平台:
Starlink v1.5
覆盖范围:
全球
运营商:
太空探索技术公司
运营商所在国:
美国
制造商(研发单位):
太空探索技术公司
制造商所在国:
美国
使用方式:
暂无
Satellite Introduction
星链(Starlink)计划是由太空探索技术公司(SpaceX)提出的一个巨型低轨卫星互联网星座项目,计划在2019年至2024年间在太空搭建由约1.2万颗卫星组成的“星链”网络,其中1584颗将部署在地球上空550千米处的近地轨道,并从2020年开始工作。该卫星仍在工作。
2D Orbit Map
3D Orbit Map
Orbit Altitude Analysis Chart
Orbit Inclination Analysis Chart
Orbit Comprehensive Analysis Chart
View Comprehensive Chart